Regional Weather Roundup
Issued by NWS

Home | Current Version | Previous Version | Text Only | Print | Product List | Glossary On
Versions: 1 2 3 4 5 6 7 8 9 10 11 12 13 14 15 16 17 18 19 20 21 22 23 24 25 26 27 28 29 30 31 32 33 34 35 36 37 38 39 40 41 42 43 44 45 46 47 48 49 50
965
ASUS44 KLIX 310405
RWRLA
LOUISIANA WEATHER ROUNDUP
NATIONAL WEATHER SERVICE NEW ORLEANS LA
1100 PM CDT SAT AUG 30 2014

NOTE: "FAIR" INDICATES FEW OR NO CLOUDS BELOW 12,000 FEET WITH NO
      SIGNIFICANT WEATHER AND/OR OBSTRUCTIONS TO VISIBILITY.
      SKY/WX - SKY CONDITION AND SIGNIFICANT WEATHER.
      TMP - AIR TEMPERATURE.    DP   - DEWPOINT TEMPERATURE.
      RH  - RELATIVE HUMIDITY.  PRES - PRESSURE.
      HX  - HEAT INDEX.         WCI  - WIND CHILL INDEX.

*  THESE STATIONS ARE NOT NWS OR FAA STATIONS AND ARE NOT UNDER
   NWS QUALITY CONTROL.

LAZ040-048-061>063-065-066-069-310500-
SOUTHEAST LOUISIANA

CITY           SKY/WX    TMP DP  RH WIND       PRES   REMARKS
N.O. AUDUBON     N/A     76  75  96 MISG        N/A
N.O. INTL ARPT CLOUDY    76  74  93 CALM      30.06S
N.O. LAKEFRONT CLOUDY    77  73  87 CALM      30.06F
N.O. DOWNTOWN* FAIR      86  70  58 CALM      30.06F
SLIDELL        CLOUDY    75  73  93 CALM      30.06F
BATON ROUGE    CLOUDY    74  72  93 SE3       30.02F
BOOTHVILLE     CLOUDY    83  80  91 SE3       30.07S HX  95
BELLE CHASSE   CLOUDY    75  72  90 CALM      30.05S
BOGALUSA*        N/A     76  72  86 SE3       30.07S
GALLIANO*      NOT AVBL
NEW ROADS*     FAIR      73  73  97 CALM      30.02S
GONZALES*      FAIR      75  75  99 S6        30.03F
HAMMOND*       CLOUDY    73  72  94 E3        30.06F
HOUMA*         CLOUDY    73  71  91 CALM      30.05F
PORT FOURCHON* MOCLDY    79  73  83 NW6       30.08S

$$

LAZ041-044-053-054-310500-
SOUTHWEST LOUISIANA

CITY           SKY/WX    TMP DP  RH WIND       PRES   REMARKS
LAKE CHARLES   CLOUDY    75  74  96 E6        29.99F
LAFAYETTE      CLOUDY    76  74  93 CALM      30.00F
PATTERSON        N/A     73  73 100 SE6       30.04F
SALT POINT       N/A     80  75  84 S5        30.01F
NEW IBERIA     CLOUDY    77  73  87 S6        30.00F
CHENAULT AIRPK LGT RAIN  75  73  92 E3        30.00F

$$

LAZ027-028-310500-
CENTRAL LOUISIANA

CITY           SKY/WX    TMP DP  RH WIND       PRES   REMARKS
FORT POLK      MOCLDY    74  73  97 S9        30.00F
ALEXANDRIA INT MOCLDY    74  73  97 S6        29.99S
ALEXANDRIA     MOCLDY    76  72  87 S5        30.01S

$$

LAZ001-002-310500-
NORTHWEST LOUISIANA

CITY           SKY/WX    TMP DP  RH WIND       PRES   REMARKS
SHREVEPORT     CLOUDY    77  74  90 S6        29.97R
BARKSDALE AFB  MOCLDY    78  73  85 S10       29.98R
DTN SHREVEPORT PTCLDY    78  73  84 S10       29.97R

$$

LAZ014-016-310500-
NORTHEAST LOUISIANA

CITY           SKY/WX    TMP DP  RH WIND       PRES   REMARKS
MONROE         CLOUDY    76  73  91 S5        30.00S
TALLULAH       MOCLDY    74  72  93 S12       30.01S

$$




USA.gov is the U.S. government's official web portal to all federal, state and local government web resources and services.